sat.trackr.live / text

‹ back to catalog

STARLINK-34942

NORAD 65181 · 2025-175H

PAYLOAD ACTIVE UNKNOWN

§ Identity

Operator
Country
US
Launch date
2025-08-14
Launch site
AFWTR
Launch vehicle
Mass (kg)
RCS (m²)

Purposes: comms

External: N2YO · Heavens-Above · Gunter

§ Orbital elements

Epoch: 2026-09-20T14:29:36.906432Z

Period
93.91 min
Inclination
97.2843°
Eccentricity
0.0002690
Mean motion
15.33462450 rev/d
Perigee alt
463.7 km
Apogee alt
467.3 km
Semi-major
6,843.6 km
B*
3.4326e-4
RAAN
132.6536°
Arg perigee
103.2159°
Mean anomaly
256.9384°
Rev number
6,212

§ Raw data

STARLINK-349421 65181U 25175H   26263.60389938  .00011030  00000+0  34326-3 0  99912 65181  97.2843 132.6536 0002690 103.2159 256.9384 15.33462450 62121

JSON: /api/v1/satellites/65181 · /tle

For live sub-satellite position, see the globe view (requires WebGL).

§ Visibility from observer

Set your observer location to see the next 7 days of passes ≥ 10°. The values pass through the URL so the page stays shareable.

No JS? Fill the form by hand. The geolocation button needs JavaScript.